Location: Cabeza de los Veneras
(40.2000°N, 5.2000°W)
Time: 09:43:21
(UTC+00:00)

CSL-04 Rocket - Visible Passes

Search period start: 24 July 2024 00:00
Search period end: 03 August 2024 00:00
Orbit: 806 x 858 km, 98.7° (Epoch: 24 July)

Date Brightness Start Highest point End Pass type
(mag) Time Alt. Az. Time Alt. Az. Time Alt. Az.
24 Jul 4.5 20:47:56 10° S 20:53:17 50° W 20:58:41 10° NNW visible
25 Jul 4.0 20:30:30 10° S 20:36:00 72° WSW 20:41:34 10° NNW visible
26 Jul 3.8 20:13:15 10° SSE 20:18:45 81° ENE 20:24:20 10° NNW visible
26 Jul 6.3 21:57:20 10° WSW 21:59:41 13° W 22:02:01 10° WNW visible
27 Jul 6.0 21:38:26 10° SW 21:42:13 19° W 21:46:02 10° NW visible
28 Jul 5.6 21:20:13 10° SSW 21:24:49 27° W 21:29:27 10° NW visible
29 Jul 5.0 21:02:20 10° SSW 21:07:26 38° W 21:12:36 10° NNW visible
30 Jul 4.4 20:44:43 10° S 20:50:07 54° W 20:55:34 10° NNW visible
31 Jul 3.9 20:27:19 10° S 20:32:51 77° WSW 20:38:25 10° NNW visible
01 Aug 3.8 20:10:06 10° SSE 20:15:37 76° ENE 20:21:11 10° N visible
01 Aug 6.3 21:53:46 10° WSW 21:56:28 14° W 21:59:11 10° WNW visible
02 Aug 4.0 19:53:03 10° SSE 19:58:26 54° ENE 20:03:49 10° N visible
02 Aug 6.0 21:35:03 10° SW 21:39:01 20° W 21:43:01 10° NW visible
